Time,TemperatureF,DewpointF,PressureIn,WindDirection,WindDirectionDegrees,WindSpeedMPH,WindSpeedGustMPH,Humidity,HourlyPrecipIn,Conditions,Clouds,dailyrainin,SoftwareType,DateUTC
2013-04-05 00:13:00,60.8,60.2,29.58,WNW,292,2.7,-999.0,98,-99.99,,,0.09,Acu-Link.com,2013-04-05 04:13:00,
2013-04-05 00:47:00,61.3,61.0,29.55,SSW,202,3.2,-999.0,99,-99.99,,,0.18,Acu-Link.com,2013-04-05 04:47:00,
2013-04-05 01:02:00,60.6,60.3,29.55,WSW,247,5.8,-999.0,99,-99.99,,,0.18,Acu-Link.com,2013-04-05 05:02:00,
2013-04-05 01:18:00,60.6,60.3,29.55,SSW,202,5.8,-999.0,99,-99.99,,,0.18,Acu-Link.com,2013-04-05 05:18:00,
2013-04-05 01:52:00,59.9,59.6,29.55,SSW,202,11.9,-999.0,99,-99.99,,,0.18,Acu-Link.com,2013-04-05 05:52:00,
2013-04-05 02:07:00,58.5,58.2,29.54,SSW,202,5.8,-999.0,99,-99.99,,,0.18,Acu-Link.com,2013-04-05 06:07:00,
2013-04-05 02:23:00,57.9,57.6,29.54,SW,225,5.8,-999.0,99,-99.99,,,0.18,Acu-Link.com,2013-04-05 06:23:00,
2013-04-05 02:48:00,57.4,57.1,29.54,SSW,202,7.3,-999.0,99,-99.99,,,0.18,Acu-Link.com,2013-04-05 06:48:00,
2013-04-05 03:03:00,56.5,56.2,29.54,West,270,6.8,-999.0,99,-99.99,,,0.18,Acu-Link.com,2013-04-05 07:03:00,
2013-04-05 03:18:00,56.7,56.4,29.54,WSW,247,6.3,-999.0,99,-99.99,,,0.18,Acu-Link.com,2013-04-05 07:18:00,
2013-04-05 03:33:00,56.7,56.4,29.55,West,270,5.8,-999.0,99,-99.99,,,0.18,Acu-Link.com,2013-04-05 07:33:00,
2013-04-05 04:21:00,54.5,54.2,29.57,SW,225,3.7,-999.0,99,-99.99,,,0.18,Acu-Link.com,2013-04-05 08:21:00,
2013-04-05 04:37:00,53.8,53.5,29.57,WNW,292,4.7,-999.0,99,-99.99,,,0.18,Acu-Link.com,2013-04-05 08:37:00,
2013-04-05 04:52:00,52.0,51.7,29.58,ENE,67,2.2,-999.0,99,-99.99,,,0.18,Acu-Link.com,2013-04-05 08:52:00,
2013-04-05 05:07:00,51.1,50.8,29.60,SE,135,4.7,-999.0,99,-99.99,,,0.18,Acu-Link.com,2013-04-05 09:07:00,
2013-04-05 05:22:00,50.4,50.1,29.60,SW,225,3.2,-999.0,99,-99.99,,,0.18,Acu-Link.com,2013-04-05 09:22:00,
2013-04-05 05:38:00,49.6,49.3,29.62,NE,45,4.7,-999.0,99,-99.99,,,0.18,Acu-Link.com,2013-04-05 09:38:00,
2013-04-05 06:39:00,46.6,46.3,29.62,West,270,2.2,-999.0,99,-99.99,,,0.18,Acu-Link.com,2013-04-05 10:39:00,
2013-04-05 06:54:00,46.0,45.7,29.64,WSW,247,2.2,-999.0,99,-99.99,,,0.18,Acu-Link.com,2013-04-05 10:54:00,
2013-04-05 07:09:00,45.9,45.6,29.65,ESE,112,2.7,-999.0,99,-99.99,,,0.18,Acu-Link.com,2013-04-05 11:09:00,
2013-04-05 07:24:00,45.5,45.2,29.65,NW,315,3.2,-999.0,99,-99.99,,,0.18,Acu-Link.com,2013-04-05 11:24:00,
2013-04-05 07:40:00,45.1,44.8,29.67,South,180,3.7,-999.0,99,-99.99,,,0.18,Acu-Link.com,2013-04-05 11:40:00,
2013-04-05 07:55:00,45.3,45.0,29.68,NW,315,2.7,-999.0,99,-99.99,,,0.18,Acu-Link.com,2013-04-05 11:55:00,
2013-04-05 08:10:00,45.3,45.0,29.67,SSE,157,2.2,-999.0,99,-99.99,,,0.18,Acu-Link.com,2013-04-05 12:10:00,
2013-04-05 08:25:00,45.9,45.6,29.70,NE,45,1.1,-999.0,99,-99.99,,,0.18,Acu-Link.com,2013-04-05 12:25:00,
2013-04-05 08:40:00,45.9,45.6,29.69,ENE,67,3.7,-999.0,99,-99.99,,,0.18,Acu-Link.com,2013-04-05 12:40:00,
2013-04-05 08:55:00,46.2,45.9,29.71,ENE,67,1.7,-999.0,99,-99.99,,,0.18,Acu-Link.com,2013-04-05 12:55:00,
2013-04-05 09:11:00,46.4,46.1,29.71,North,0,3.2,-999.0,99,-99.99,,,0.18,Acu-Link.com,2013-04-05 13:11:00,
2013-04-05 09:26:00,46.8,46.3,29.69,NE,45,2.2,-999.0,98,-99.99,,,0.18,Acu-Link.com,2013-04-05 13:26:00,
2013-04-05 10:11:00,47.8,47.3,29.69,North,0,3.2,-999.0,98,-99.99,,,0.18,Acu-Link.com,2013-04-05 14:11:00,
2013-04-05 10:26:00,48.6,47.8,29.70,NW,315,3.2,-999.0,97,-99.99,,,0.18,Acu-Link.com,2013-04-05 14:26:00,
2013-04-05 10:56:00,50.0,48.6,29.71,NE,45,6.8,-999.0,95,-99.99,,,0.18,Acu-Link.com,2013-04-05 14:56:00,
2013-04-05 11:11:00,50.9,48.9,29.72,NE,45,2.2,-999.0,93,-99.99,,,0.18,Acu-Link.com,2013-04-05 15:11:00,
2013-04-05 11:27:00,51.4,49.2,29.72,West,270,1.1,-999.0,92,-99.99,,,0.18,Acu-Link.com,2013-04-05 15:27:00,
2013-04-05 11:42:00,52.5,49.4,29.72,ESE,112,1.7,-999.0,89,-99.99,,,0.18,Acu-Link.com,2013-04-05 15:42:00,
2013-04-05 11:57:00,54.5,50.1,29.72,NNE,22,2.2,-999.0,85,-99.99,,,0.18,Acu-Link.com,2013-04-05 15:57:00,
2013-04-05 12:12:00,55.8,51.0,29.74,NE,45,2.2,-999.0,84,-99.99,,,0.18,Acu-Link.com,2013-04-05 16:12:00,
2013-04-05 12:27:00,55.9,50.2,29.73,NE,45,2.2,-999.0,81,-99.99,,,0.18,Acu-Link.com,2013-04-05 16:27:00,
2013-04-05 12:42:00,56.8,50.7,29.71,South,180,3.7,-999.0,80,-99.99,,,0.18,Acu-Link.com,2013-04-05 16:42:00,
2013-04-05 12:57:00,55.4,49.7,29.72,NE,45,1.7,-999.0,81,-99.99,,,0.18,Acu-Link.com,2013-04-05 16:57:00,
2013-04-05 13:12:00,54.7,49.3,29.72,ENE,67,2.7,-999.0,82,-99.99,,,0.18,Acu-Link.com,2013-04-05 17:12:00,
2013-04-05 13:27:00,54.3,48.9,29.72,South,180,2.7,-999.0,82,-99.99,,,0.18,Acu-Link.com,2013-04-05 17:27:00,
2013-04-05 13:42:00,55.0,48.9,29.72,ENE,67,3.7,-999.0,80,-99.99,,,0.18,Acu-Link.com,2013-04-05 17:42:00,
2013-04-05 13:58:00,55.9,49.5,29.72,NNW,337,2.2,-999.0,79,-99.99,,,0.18,Acu-Link.com,2013-04-05 17:58:00,
2013-04-05 14:13:00,56.1,49.3,29.73,NNW,337,2.7,-999.0,78,-99.99,,,0.18,Acu-Link.com,2013-04-05 18:13:00,
2013-04-05 14:28:00,55.4,48.3,29.71,SE,135,4.2,-999.0,77,-99.99,,,0.18,Acu-Link.com,2013-04-05 18:28:00,
2013-04-05 14:43:00,56.3,48.5,29.71,ESE,112,2.7,-999.0,75,-99.99,,,0.18,Acu-Link.com,2013-04-05 18:43:00,
2013-04-05 14:58:00,55.8,48.0,29.71,NNW,337,2.7,-999.0,75,-99.99,,,0.18,Acu-Link.com,2013-04-05 18:58:00,
2013-04-05 15:13:00,55.6,47.4,29.70,NNW,337,1.7,-999.0,74,-99.99,,,0.18,Acu-Link.com,2013-04-05 19:13:00,
2013-04-05 15:28:00,56.1,47.6,29.70,NNE,22,7.3,-999.0,73,-99.99,,,0.18,Acu-Link.com,2013-04-05 19:28:00,
2013-04-05 15:59:00,56.3,47.0,29.69,NE,45,4.2,-999.0,71,-99.99,,,0.18,Acu-Link.com,2013-04-05 19:59:00,
2013-04-05 16:14:00,57.4,48.1,29.69,East,90,2.7,-999.0,71,-99.99,,,0.18,Acu-Link.com,2013-04-05 20:14:00,
2013-04-05 16:44:00,57.0,47.7,29.70,East,90,3.7,-999.0,71,-99.99,,,0.18,Acu-Link.com,2013-04-05 20:44:00,
2013-04-05 16:59:00,57.0,46.9,29.70,ESE,112,2.7,-999.0,69,-99.99,,,0.18,Acu-Link.com,2013-04-05 20:59:00,
2013-04-05 17:29:00,58.1,48.0,29.71,East,90,2.7,-999.0,69,-99.99,,,0.18,Acu-Link.com,2013-04-05 21:29:00,
2013-04-05 17:44:00,57.0,46.9,29.71,ENE,67,2.7,-999.0,69,-99.99,,,0.18,Acu-Link.com,2013-04-05 21:44:00,
2013-04-05 17:59:00,56.1,46.5,29.72,NW,315,1.1,-999.0,70,-99.99,,,0.18,Acu-Link.com,2013-04-05 21:59:00,
2013-04-05 18:14:00,55.8,46.9,29.73,East,90,1.7,-999.0,72,-99.99,,,0.18,Acu-Link.com,2013-04-05 22:14:00,
2013-04-05 18:30:00,55.6,47.1,29.72,SE,135,2.7,-999.0,73,-99.99,,,0.18,Acu-Link.com,2013-04-05 22:30:00,
2013-04-05 18:45:00,54.9,46.4,29.73,West,270,2.2,-999.0,73,-99.99,,,0.18,Acu-Link.com,2013-04-05 22:45:00,
2013-04-05 19:00:00,54.1,46.0,29.74,ENE,67,1.7,-999.0,74,-99.99,,,0.18,Acu-Link.com,2013-04-05 23:00:00,
2013-04-05 19:30:00,52.7,45.7,29.74,NE,45,0.0,-999.0,77,-99.99,,,0.18,Acu-Link.com,2013-04-05 23:30:00,
2013-04-05 19:45:00,51.6,45.6,29.76,North,0,0.0,-999.0,80,-99.99,,,0.18,Acu-Link.com,2013-04-05 23:45:00,
2013-04-05 20:00:00,50.7,45.7,29.77,NNW,337,0.0,-999.0,83,-99.99,,,0.18,Acu-Link.com,2013-04-06 00:00:00,
2013-04-05 20:15:00,50.2,45.9,29.77,South,180,0.0,-999.0,85,-99.99,,,0.18,Acu-Link.com,2013-04-06 00:15:00,
2013-04-05 20:30:00,49.1,45.1,29.79,SSW,202,0.0,-999.0,86,-99.99,,,0.18,Acu-Link.com,2013-04-06 00:30:00,
2013-04-05 20:46:00,48.4,44.7,29.79,SSW,202,0.0,-999.0,87,-99.99,,,0.18,Acu-Link.com,2013-04-06 00:46:00,
2013-04-05 21:01:00,47.8,44.7,29.79,South,180,0.0,-999.0,89,-99.99,,,0.18,Acu-Link.com,2013-04-06 01:01:00,
2013-04-05 21:46:00,46.6,44.7,29.81,South,180,0.0,-999.0,93,-99.99,,,0.18,Acu-Link.com,2013-04-06 01:46:00,
2013-04-05 22:01:00,45.9,44.3,29.82,South,180,0.0,-999.0,94,-99.99,,,0.18,Acu-Link.com,2013-04-06 02:01:00,
2013-04-05 22:16:00,46.0,44.6,29.82,South,180,0.0,-999.0,95,-99.99,,,0.18,Acu-Link.com,2013-04-06 02:16:00,
2013-04-05 22:46:00,45.3,44.2,29.83,SE,135,0.0,-999.0,96,-99.99,,,0.18,Acu-Link.com,2013-04-06 02:46:00,
2013-04-05 23:01:00,45.1,44.0,29.82,ESE,112,0.0,-999.0,96,-99.99,,,0.18,Acu-Link.com,2013-04-06 03:01:00,
2013-04-05 23:17:00,44.6,43.5,29.82,NW,315,0.0,-999.0,96,-99.99,,,0.18,Acu-Link.com,2013-04-06 03:17:00,
2013-04-05 23:32:00,44.8,43.7,29.83,NW,315,0.0,-999.0,96,-99.99,,,0.18,Acu-Link.com,2013-04-06 03:32:00,
2013-04-05 23:47:00,44.6,43.5,29.83,NW,315,0.0,-999.0,96,-99.99,,,0.18,Acu-Link.com,2013-04-06 03:47:00,